Home > Time Zones > World Clock > Weather > Japan > Osaka > Past weeks

Flag for Japan Weather past 2 weeks in Osaka, Japan

Now
81 °F

Passing clouds.


Feels Like: 85 °F
Forecast: 74 / 91 °F
Wind: 2 mph from Southeast

Location: Kansai International Airport

Current Time: Jul 30, 2014 at 4:07:21 AM

Latest Report: Jul 30, 2014 at 3:30 AM


Visibility: N/A

Pressure: 29.92 "Hg

Humidity: 79%

Dew point: 73 °F

Location of OsakaLocation

Historic Weather in Osaka — Graph

°F

Osaka temperature yesterday

Maximum temperature yesterday: 90 °F (at 12:30 PM)
Minimum temperature yesterday: 77 °F (at 1:30 AM)
Average temperature yesterday: 83 °F

Past Weeks' High & Low Weather Summary

 TemperatureHumidityPressure
High97 °F (Jul 25, 3:30 PM)94% (Jul 15, 4:00 AM)29.95 "Hg (Jul 15, 4:00 AM)
Low75 °F (Jul 15, 4:00 AM)39% (Jul 25, 3:30 PM)29.68 "Hg (Jul 23, 6:00 PM)
Average83 °F73%29.84 "Hg
* Reported Jul 15 2:00 AM — Jul 30 2:30 AM, Osaka, Weather by CustomWeather, © 2014

Note: Actual official high and low records may vary slightly from our data, if they occured in-between our weather recording intervals... More about our weather records

Advertising

Osaka weather history for previous 24 hours

 ConditionsComfort  
Time TempWeatherWind HumidityBarometerVisibility
2:30 AM
Jul 30
81 °FPassing clouds.5 mph79%29.92 "HgN/A
2:00 AM81 °FPassing clouds.8 mph79%29.92 "HgN/A
1:30 AM81 °FPassing clouds.7 mph84%29.92 "HgN/A
1:00 AM81 °FPassing clouds.7 mph84%29.92 "HgN/A
12:30 AM81 °FPassing clouds.6 mph84%29.92 "HgN/A
12:00 AM81 °FPassing clouds.8 mph84%29.92 "HgN/A
11:30 PM
Jul 29
82 °FPassing clouds.6 mph79%29.92 "HgN/A
11:00 PM82 °FPassing clouds.6 mph79%29.92 "HgN/A
10:30 PM82 °FPassing clouds.1 mph70%29.92 "HgN/A
10:00 PM82 °FPassing clouds.2 mph74%29.92 "HgN/A
9:30 PM82 °FPassing clouds.6 mph79%29.92 "HgN/A
9:00 PM81 °FPassing clouds.8 mph84%29.92 "HgN/A
8:30 PM81 °FPassing clouds.8 mph84%29.89 "HgN/A
8:00 PM82 °FPassing clouds.10 mph74%29.89 "HgN/A
7:30 PM82 °FPassing clouds.12 mph74%29.89 "HgN/A
7:00 PM84 °FScattered clouds.10 mph70%29.86 "HgN/A
6:30 PM84 °FScattered clouds.9 mph70%29.86 "HgN/A
6:00 PM86 °FPassing clouds.12 mph66%29.86 "HgN/A
5:30 PM86 °FPassing clouds.13 mph66%29.86 "HgN/A
5:00 PM86 °FPassing clouds.10 mph70%29.86 "HgN/A
4:30 PM86 °FPassing clouds.14 mph66%29.86 "HgN/A
4:00 PM88 °FPassing clouds.14 mph62%29.86 "HgN/A
3:30 PM88 °FPassing clouds.16 mph59%29.86 "HgN/A
3:00 PM88 °FPassing clouds.13 mph55%29.86 "HgN/A
2:30 PM90 °FPassing clouds.10 mph46%29.86 "HgN/A
2:00 PM90 °FPassing clouds.10 mph49%29.86 "HgN/A
1:30 PM90 °FPassing clouds.7 mph49%29.86 "HgN/A
1:00 PM90 °FPassing clouds.8 mph49%29.86 "HgN/A
12:30 PM90 °FPassing clouds.8 mph49%29.86 "HgN/A
11:30 AM88 °FPartly sunny.8 mph49%29.89 "HgN/A
11:00 AM88 °FPartly sunny.7 mph52%29.89 "HgN/A
10:30 AM86 °FPartly sunny.8 mph52%29.89 "HgN/A
10:00 AM86 °FPartly sunny.7 mph52%29.89 "HgN/A
9:30 AM86 °FPartly sunny.8 mph55%29.89 "HgN/A
9:00 AM84 °FPartly sunny.8 mph58%29.89 "HgN/A
8:30 AM82 °FPartly sunny.7 mph58%29.89 "HgN/A
8:00 AM82 °FBroken clouds.7 mph62%29.89 "HgN/A
7:30 AM79 °FBroken clouds.7 mph70%29.89 "HgN/A
7:00 AM79 °FPartly sunny.9 mph74%29.86 "HgN/A
6:30 AM77 °FPartly sunny.9 mph69%29.86 "HgN/A
5:30 AM77 °FPartly sunny.7 mph74%29.86 "HgN/A
5:00 AM77 °FPassing clouds.6 mph74%29.86 "HgN/A
4:30 AM77 °FPassing clouds.5 mph74%29.86 "HgN/A
4:00 AM77 °FPassing clouds.5 mph74%29.86 "HgN/A
Weather by CustomWeather, © 2014

See weather overviewHow to use our weather pages